This is the latest recevied weather packets stored in our database for station/object W9LRT-WX. If no packets are shown the sender has not sent any weather packets the latest 10 day(s).
| Time | Temp. | Humidity | Pressure | Rain* | Wind** | Luminosity | Snow |
|---|---|---|---|---|---|---|---|
| 1777690133 | 3.89° C | 71% | 1017 hPa | 0 mm | - | 0 W/m² | - |
| 1777689236 | 3.89° C | 69% | 1016.8 hPa | 0 mm | - | 0 W/m² | - |
| 1777688333 | 4.44° C | 68% | 1016.8 hPa | 0 mm | - | 0 W/m² | - |
| 1777687433 | 4.44° C | 67% | 1016.7 hPa | 0 mm | - | 0 W/m² | - |
| 1777686534 | 5° C | 65% | 1016.6 hPa | 0 mm | - | 0 W/m² | - |
| 1777685633 | 5° C | 65% | 1016.4 hPa | 0 mm | - | 0 W/m² | - |
| 1777684734 | 5.56° C | 64% | 1016.2 hPa | 0 mm | - | 0 W/m² | - |
| 1777683829 | 5.56° C | 64% | 1016 hPa | 0 mm | - | 0 W/m² | - |
| 1777682929 | 6.11° C | 62% | 1015.9 hPa | 0 mm | - | 0 W/m² | - |
| 1777682030 | 6.11° C | 61% | 1015.9 hPa | 0 mm | - | 7 W/m² | - |
| 1777681129 | 6.67° C | 59% | 1015.8 hPa | 0 mm | - | 16 W/m² | - |
| 1777680229 | 7.22° C | 57% | 1015.7 hPa | 0 mm | - | 28 W/m² | - |
| 1777679330 | 7.78° C | 57% | 1015.6 hPa | 0 mm | - | 62 W/m² | - |
| 1777678430 | 8.33° C | 54% | 1015.5 hPa | 0 mm | - | 134 W/m² | - |
| 1777677529 | 8.89° C | 55% | 1015.5 hPa | 0 mm | - | 202 W/m² | - |
| 1777676628 | 8.89° C | 55% | 1015.4 hPa | 0 mm | - | 255 W/m² | - |
| 1777675729 | 8.89° C | 55% | 1015.5 hPa | 0 mm | - | 343 W/m² | - |
| 1777674831 | 9.44° C | 54% | 1015.4 hPa | 0 mm | - | 167 W/m² | - |
| 1777673929 | 10° C | 51% | 1015.4 hPa | 0 mm | - | 408 W/m² | - |
| 1777673031 | 10° C | 52% | 1015.3 hPa | 0 mm | - | 450 W/m² | - |
| 1777672129 | 9.44° C | 49% | 1015.4 hPa | 0 mm | - | 570 W/m² | - |
| 1777671228 | 9.44° C | 51% | 1015.3 hPa | 0 mm | - | 608 W/m² | - |
| 1777670329 | 9.44° C | 53% | 1015.3 hPa | 0 mm | - | 290 W/m² | - |
| 1777669428 | 10° C | 52% | 1015.2 hPa | 0 mm | - | 643 W/m² | - |
| 1777668529 | 10.56° C | 52% | 1015.1 hPa | 0 mm | - | 703 W/m² | - |
* Rain latest hour (hover to see other rain measurements)
** Current wind speed in m/s (hover to see current wind gust speed)